Project,Study,Ord_Occ,Event_Num,Cast_ID,Date_Time_UTC,Date_Time_PST,Lat_Dec,Lon_Dec,Sta_ID,Line,Sta,Depth,Pressure,PrQ,Temp1,Temp1Q,Temp2,Temp2Q,TempAve,Salt1,Salt1Q,Salt1_Corr,Salt2,Salt2Q,Salt2_Corr,SaltAve_Corr,Ox1,Ox1Q,Ox1_CruiseCorr,Ox1_StaCorr,Ox2,Ox2Q,Ox2_CruiseCorr,Ox2_StaCorr,OxAve_StaCorr,Ox1uM,Ox1uM_CruiseCorr,Ox1uM_StaCorr,Ox2uM,Ox2uM_CruiseCorr,Ox2uM_StaCorr,OxAveuM_StaCorr,FluorV,FluorQ,EstChl_CruiseCorr,EstChl_StaCorr,ISUSV,ISUSQ,EstNO3_CruiseCorr,EstNO3_StaCorr,SigThetaTS1,SigThetaTS1Q,SigThetaTS2,SigThetaTS2Q,BAT,XMiss,TransQ,pH,pHQ,SPAR,SPARQ,PAR,PARQ,PoT1,PoT2,DynHt,SVA,OxSat1,OxSat2,BTL_Depth,BTL_Temp,SaltB,OxB,OxBuM,Chl-a,Phaeo,NO3,NO2,NH4,PO4,SIL
CalCOFI,2101RL,059,,2101_059d,30-Jan-2021 15:22:10,30-Jan-2021 07:22:10,34.45181,-120.52451,080.0 051.0,080.0,051.0,3.000,3.022,,12.8982,,12.8958,,12.8970,33.3459,,33.3517,33.3428,,33.3448,33.3483,5.3200,,5.5678,5.5533,5.1973,,5.5181,5.5332,5.5433,231.768,242.8749,242.3176,226.419,258.1821,241.4397,241.8787,0.1328,,0.8400,1.8703, ,, , ,25.1318,,25.1298,,1.3954,70.5529,,,,5.5271E+02,,1.0303E+00,,12.8978,12.8954,0.0041,282.311,88.645,86.593,2,,33.3122,5.567,242.91,1.926,0.032,,,,,
CalCOFI,2101RL,059,,2101_059d,30-Jan-2021 15:22:19,30-Jan-2021 07:22:19,34.45182,-120.52452,080.0 051.0,080.0,051.0,4.000,4.029,,12.8761,,12.8774,,12.8768,33.3510,,33.3568,33.3483,,33.3503,33.3536,5.3180,,5.5657,5.5512,5.2180,,5.5400,5.5543,5.5528,231.676,242.7786,242.2230,227.323,258.0797,242.3608,242.2919,0.1239,,0.7670,1.6097, ,, , ,25.1401,,25.1378,,1.3461,71.4244,,,,5.4330E+02,,6.0491E-01,,12.8756,12.8769,0.0081,281.546,88.573,86.910,,,,,,,,,,,,
CalCOFI,2101RL,059,,2101_059d,30-Jan-2021 15:22:20,30-Jan-2021 07:22:20,34.45182,-120.52452,080.0 051.0,080.0,051.0,5.000,5.036,,12.8941,,12.8911,,12.8926,33.3471,,33.3529,33.3434,,33.3454,33.3492,5.3164,,5.5640,5.5496,5.2363,,5.5595,5.5729,5.5613,231.609,242.7085,242.1541,228.118,258.0052,243.1708,242.6625,0.1252,,0.7777,1.6477, ,, , ,25.1336,,25.1313,,1.3761,70.8907,,,,5.4688E+02,,3.5028E-01,,12.8934,12.8904,0.0109,282.192,88.578,87.235,,,,,,,,,,,,
CalCOFI,2101RL,059,,2101_059d,30-Jan-2021 15:22:21,30-Jan-2021 07:22:21,34.45182,-120.52452,080.0 051.0,080.0,051.0,6.000,6.043,,12.8890,,12.8874,,12.8882,33.3400,,33.3458,33.3384,,33.3404,33.3431,5.3206,,5.5684,5.5539,5.2293,,5.5520,5.5658,5.5599,231.791,242.8990,242.3412,227.817,258.2076,242.8641,242.6027,0.1386,,0.8875,2.0402, ,, , ,25.1291,,25.1282,,1.4017,70.4390,,,,5.4341E+02,,1.5147E-01,,12.8882,12.8866,0.0137,282.646,88.634,87.110,,,,,,,,,,,,
CalCOFI,2101RL,059,,2101_059d,30-Jan-2021 15:22:23,30-Jan-2021 07:22:23,34.45182,-120.52453,080.0 051.0,080.0,051.0,7.000,7.051,,12.8846,,12.8852,,12.8849,33.3402,,33.3460,33.3381,,33.3401,33.3431,5.3278,,5.5760,5.5613,5.2165,,5.5384,5.5528,5.5571,232.108,243.2309,242.6670,227.259,258.5601,242.2956,242.4813,0.1377,,0.8801,2.0139, ,, , ,25.1301,,25.1284,,1.3945,70.5667,,,,5.3744E+02,,2.5856E-02,,12.8836,12.8843,0.0166,282.574,88.747,86.892,,,,,,,,,,,,
CalCOFI,2101RL,059,,2101_059d,30-Jan-2021 15:22:25,30-Jan-2021 07:22:25,34.45182,-120.52454,080.0 051.0,080.0,051.0,8.000,8.058,,12.8822,,12.8825,,12.8824,33.3445,,33.3503,33.3422,,33.3442,33.3473,5.3170,,5.5647,5.5502,5.2137,,5.5355,5.5499,5.5501,231.635,242.7357,242.1809,227.135,258.0342,242.1693,242.1751,0.1401,,0.8998,2.0842, ,, , ,25.1340,,25.1322,,1.3710,70.9825,,,,5.6336E+02,,-1.067E-03,,12.8811,12.8815,0.0194,282.234,88.564,86.843,,,,,,,,,,,,
CalCOFI,2101RL,059,,2101_059d,30-Jan-2021 15:22:27,30-Jan-2021 07:22:27,34.45182,-120.52454,080.0 051.0,080.0,051.0,9.000,9.065,,12.8676,,12.8675,,12.8676,33.3556,,33.3614,33.3502,,33.3522,33.3568,5.3193,,5.5671,5.5526,5.2304,,5.5532,5.5669,5.5598,231.731,242.8362,242.2795,227.859,258.1409,242.9069,242.5932,0.1303,,0.8195,1.7971, ,, , ,25.1455,,25.1413,,1.3507,71.3438,,,,5.7903E+02,,1.0000E-12,,12.8663,12.8663,0.0223,281.166,88.581,87.098,,,,,,,,,,,,
CalCOFI,2101RL,059,,2101_059d,30-Jan-2021 15:22:30,30-Jan-2021 07:22:30,34.45182,-120.52454,080.0 051.0,080.0,051.0,10.000,10.072,,12.8696,,12.8638,,12.8667,33.3586,,33.3644,33.3543,,33.3563,33.3604,5.2995,,5.5464,5.5322,5.2080,,5.5294,5.5441,5.5382,230.870,241.9349,241.3946,226.886,257.1835,241.9155,241.6551,0.1277,,0.7982,1.7210, ,, , ,25.1474,,25.1452,,1.3235,71.8305,,,,5.7952E+02,,1.0000E-12,,12.8682,12.8625,0.0251,281.007,88.258,86.722,10,,33.3520,5.581,243.52,1.705,0.250,,,,,
CalCOFI,2101RL,059,,2101_059d,30-Jan-2021 15:22:32,30-Jan-2021 07:22:32,34.45182,-120.52454,080.0 051.0,080.0,051.0,11.000,11.080,,12.9022,,12.9034,,12.9028,33.3757,,33.3815,33.3739,,33.3759,33.3787,5.3011,,5.5480,5.5339,5.2018,,5.5228,5.5378,5.5359,230.938,242.0061,241.4645,226.613,257.2591,241.6374,241.5510,0.1326,,0.8383,1.8645, ,, , ,25.1543,,25.1527,,1.2253,73.6204,,,,5.6837E+02,,1.0000E-12,,12.9007,12.9019,0.0279,280.384,88.353,86.700,,,,,,,,,,,,
CalCOFI,2101RL,059,,2101_059d,30-Jan-2021 15:22:33,30-Jan-2021 07:22:33,34.45182,-120.52455,080.0 051.0,080.0,051.0,12.000,12.087,,12.9106,,12.9083,,12.9095,33.3802,,33.3860,33.3770,,33.3790,33.3825,5.2975,,5.5443,5.5302,5.2061,,5.5274,5.5422,5.5362,230.781,241.8418,241.3032,226.798,257.0845,241.8259,241.5646,0.1312,,0.8269,1.8235, ,, , ,25.1562,,25.1541,,1.1446,75.1153,,,,5.3475E+02,,1.0000E-12,,12.9090,12.9067,0.0307,280.230,88.311,86.781,,,,,,,,,,,,
CalCOFI,2101RL,059,,2101_059d,30-Jan-2021 15:22:34,30-Jan-2021 07:22:34,34.45182,-120.52456,080.0 051.0,080.0,051.0,13.000,13.094,,12.9138,,12.9174,,12.9156,33.3821,,33.3879,33.3818,,33.3838,33.3859,5.2954,,5.5421,5.5280,5.2136,,5.5354,5.5498,5.5389,230.690,241.7465,241.2096,227.125,256.9833,242.1591,241.6844,0.1363,,0.8687,1.9729, ,, , ,25.1570,,25.1561,,1.1232,75.5186,,,,5.0143E+02,,1.0000E-12,,12.9121,12.9156,0.0336,280.175,88.283,86.925,,,,,,,,,,,,
CalCOFI,2101RL,059,,2101_059d,30-Jan-2021 15:22:36,30-Jan-2021 07:22:36,34.45182,-120.52456,080.0 051.0,080.0,051.0,14.000,14.102,,12.9085,,12.9076,,12.9081,33.3778,,33.3836,33.3741,,33.3761,33.3799,5.3035,,5.5505,5.5364,5.2101,,5.5316,5.5463,5.5414,231.041,242.1139,241.5704,226.973,257.3736,242.0042,241.7873,0.1348,,0.8564,1.9289, ,, , ,25.1547,,25.1521,,1.1166,75.6421,,,,5.4576E+02,,1.0000E-12,,12.9067,12.9057,0.0364,280.421,88.406,86.845,,,,,,,,,,,,
CalCOFI,2101RL,059,,2101_059d,30-Jan-2021 15:22:39,30-Jan-2021 07:22:39,34.45183,-120.52456,080.0 051.0,080.0,051.0,15.000,15.109,,12.9023,,12.9093,,12.9058,33.3733,,33.3791,33.3750,,33.3770,33.3781,5.3059,,5.5531,5.5388,5.2128,,5.5345,5.5490,5.5439,231.149,242.2270,241.6814,227.092,257.4937,242.1254,241.9034,0.1373,,0.8768,2.0022, ,, , ,25.1525,,25.1525,,1.1292,75.4047,,,,5.8994E+02,,1.0000E-12,,12.9003,12.9073,0.0392,280.660,88.433,86.894,,,,,,,,,,,,
CalCOFI,2101RL,059,,2101_059d,30-Jan-2021 15:22:41,30-Jan-2021 07:22:41,34.45184,-120.52456,080.0 051.0,080.0,051.0,16.000,16.116,,12.9000,,12.9005,,12.9003,33.3715,,33.3773,33.3693,,33.3713,33.3743,5.3062,,5.5534,5.5391,5.2208,,5.5430,5.5571,5.5481,231.160,242.2385,241.6927,227.442,257.5059,242.4820,242.0874,0.1350,,0.8580,1.9348, ,, , ,25.1516,,25.1498,,1.1871,74.3224,,,,5.7257E+02,,1.0000E-12,,12.8978,12.8983,0.0420,280.771,88.431,87.009,,,,,,,,,,,,
CalCOFI,2101RL,059,,2101_059d,30-Jan-2021 15:22:43,30-Jan-2021 07:22:43,34.45182,-120.52456,080.0 051.0,080.0,051.0,17.000,17.124,,12.8998,,12.8932,,12.8965,33.3709,,33.3767,33.3654,,33.3674,33.3721,5.3187,,5.5665,5.5520,5.2304,,5.5532,5.5669,5.5595,231.706,242.8100,242.2538,227.860,258.1131,242.9079,242.5809,0.1315,,0.8293,1.8323, ,, , ,25.1512,,25.1483,,1.2168,73.7721,,,,5.6853E+02,,1.0000E-12,,12.8975,12.8909,0.0449,280.837,88.640,87.153,,,,,,,,,,,,
CalCOFI,2101RL,059,,2101_059d,30-Jan-2021 15:22:44,30-Jan-2021 07:22:44,34.45182,-120.52456,080.0 051.0,080.0,051.0,18.000,18.131,,12.8746,,12.8740,,12.8743,33.3570,,33.3628,33.3546,,33.3566,33.3597,5.3273,,5.5755,5.5608,5.2268,,5.5494,5.5633,5.5621,232.083,243.2047,242.6413,227.705,258.5323,242.7500,242.6957,0.1323,,0.8359,1.8557, ,, , ,25.1455,,25.1437,,1.2506,73.1505,,,,5.7726E+02,,1.0000E-12,,12.8721,12.8715,0.0477,281.410,88.730,87.053,,,,,,,,,,,,
CalCOFI,2101RL,059,,2101_059d,30-Jan-2021 15:22:46,30-Jan-2021 07:22:46,34.45182,-120.52456,080.0 051.0,080.0,051.0,19.000,19.138,,12.8731,,12.8734,,12.8733,33.3562,,33.3620,33.3542,,33.3562,33.3591,5.3203,,5.5681,5.5536,5.2229,,5.5452,5.5593,5.5565,231.778,242.8854,242.3278,227.533,258.1932,242.5748,242.4513,0.1320,,0.8334,1.8469, ,, , ,25.1452,,25.1436,,1.2666,72.8589,,,,5.5723E+02,,1.0000E-12,,12.8705,12.8708,0.0505,281.464,88.610,86.986,,,,,,,,,,,,
CalCOFI,2101RL,059,,2101_059d,30-Jan-2021 15:22:48,30-Jan-2021 07:22:48,34.45184,-120.52457,080.0 051.0,080.0,051.0,20.000,20.145,,12.8696,,12.8705,,12.8701,33.3538,,33.3596,33.3521,,33.3541,33.3569,5.3047,,5.5518,5.5376,5.2091,,5.5306,5.5452,5.5414,231.098,242.1736,241.6290,226.934,257.4370,241.9644,241.7967,0.1288,,0.8072,1.7532, ,, , ,25.1440,,25.1424,,1.2737,72.7294,,,,5.4280E+02,,1.0000E-12,,12.8669,12.8679,0.0534,281.603,88.342,86.751,20,,33.4031,5.482,239.21,1.579,0.308,,,,,
CalCOFI,2101RL,059,,2101_059d,30-Jan-2021 15:22:51,30-Jan-2021 07:22:51,34.45184,-120.52460,080.0 051.0,080.0,051.0,21.000,21.153,,12.8880,,12.8922,,12.8901,33.3773,,33.3831,33.3787,,33.3807,33.3819,5.2169,,5.4599,5.4475,5.1233,,5.4395,5.4580,5.4528,227.270,238.1664,237.6947,223.192,253.1802,238.1518,237.9233,0.1285,,0.8047,1.7444, ,, , ,25.1586,,25.1589,,1.2511,73.1493,,,,5.9207E+02,,1.0000E-12,,12.8851,12.8893,0.0562,280.242,86.925,85.374,,,,,,,,,,,,
CalCOFI,2101RL,059,,2101_059d,30-Jan-2021 15:22:52,30-Jan-2021 07:22:52,34.45185,-120.52461,080.0 051.0,080.0,051.0,22.000,22.160,,12.9111,,12.9129,,12.9120,33.4075,,33.4133,33.4058,,33.4078,33.4106,5.1968,,5.4389,5.4268,5.1054,,5.4204,5.4398,5.4333,226.387,237.2421,236.7872,222.408,252.1983,237.3530,237.0701,0.1328,,0.8400,1.8703, ,, , ,25.1775,,25.1758,,1.1181,75.6153,,,,5.8849E+02,,1.0000E-12,,12.9082,12.9099,0.0590,278.470,86.647,85.126,,,,,,,,,,,,
CalCOFI,2101RL,059,,2101_059d,30-Jan-2021 15:22:54,30-Jan-2021 07:22:54,34.45186,-120.52462,080.0 051.0,080.0,051.0,23.000,23.167,,12.9142,,12.9145,,12.9144,33.4274,,33.4332,33.4259,,33.4279,33.4306,5.2014,,5.4437,5.4316,5.0955,,5.4099,5.4297,5.4307,226.588,237.4525,236.9938,221.972,252.4218,236.9088,236.9513,0.1250,,0.7761,1.6419, ,, , ,25.1923,,25.1911,,1.0495,76.9237,,,,5.8401E+02,,1.0000E-12,,12.9111,12.9113,0.0618,277.087,86.742,84.974,,,,,,,,,,,,
CalCOFI,2101RL,059,,2101_059d,30-Jan-2021 15:22:55,30-Jan-2021 07:22:55,34.45186,-120.52462,080.0 051.0,080.0,051.0,24.000,24.175,,12.9136,,12.9145,,12.9141,33.4292,,33.4350,33.4269,,33.4289,33.4320,5.2070,,5.4495,5.4373,5.0954,,5.4098,5.4296,5.4335,226.828,237.7038,237.2404,221.967,252.6887,236.9037,237.0721,0.1280,,0.8006,1.7298, ,, , ,25.1938,,25.1919,,1.0235,77.4229,,,,5.7043E+02,,1.0000E-12,,12.9103,12.9113,0.0646,276.973,86.834,84.973,,,,,,,,,,,,
CalCOFI,2101RL,059,,2101_059d,30-Jan-2021 15:22:59,30-Jan-2021 07:22:59,34.45187,-120.52463,080.0 051.0,080.0,051.0,25.000,25.182,,12.9161,,12.9161,,12.9161,33.4285,,33.4343,33.4266,,33.4286,33.4315,5.1864,,5.4280,5.4162,5.0862,,5.4001,5.4202,5.4182,225.934,236.7679,236.3216,221.567,251.6946,236.4961,236.4089,0.1275,,0.7965,1.7151, ,, , ,25.1928,,25.1914,,1.0086,77.7137,,,,5.6550E+02,,1.0000E-12,,12.9128,12.9127,0.0674,277.097,86.495,84.823,,,,,,,,,,,,
CalCOFI,2101RL,059,,2101_059d,30-Jan-2021 15:23:00,30-Jan-2021 07:23:00,34.45190,-120.52464,080.0 051.0,080.0,051.0,26.000,26.190,,12.9098,,12.9097,,12.9098,33.4323,,33.4381,33.4301,,33.4321,33.4351,5.1849,,5.4264,5.4146,5.0794,,5.3928,5.4133,5.4140,225.868,236.6988,236.2538,221.271,251.6212,236.1945,236.2242,0.1287,,0.8064,1.7503, ,, , ,25.1970,,25.1954,,1.0077,77.7302,,,,5.7575E+02,,1.0000E-12,,12.9062,12.9062,0.0702,276.721,86.461,84.700,,,,,,,,,,,,
CalCOFI,2101RL,059,,2101_059d,30-Jan-2021 15:23:02,30-Jan-2021 07:23:02,34.45190,-120.52465,080.0 051.0,080.0,051.0,27.000,27.197,,12.9093,,12.9123,,12.9108,33.4319,,33.4377,33.4308,,33.4328,33.4353,5.1801,,5.4214,5.4097,5.0930,,5.4073,5.4271,5.4184,225.656,236.4769,236.0359,221.862,251.3854,236.7967,236.4163,0.1265,,0.7884,1.6858, ,, , ,25.1969,,25.1954,,1.0080,77.7235,,,,5.9015E+02,,1.0000E-12,,12.9057,12.9086,0.0730,276.764,86.379,84.932,,,,,,,,,,,,
CalCOFI,2101RL,059,,2101_059d,30-Jan-2021 15:23:03,30-Jan-2021 07:23:03,34.45190,-120.52466,080.0 051.0,080.0,051.0,28.000,28.204,,12.9122,,12.9149,,12.9136,33.4328,,33.4386,33.4315,,33.4335,33.4361,5.1849,,5.4264,5.4146,5.0910,,5.4052,5.4251,5.4199,225.867,236.6978,236.2528,221.778,251.6200,236.7111,236.4820,0.1269,,0.7916,1.6975, ,, , ,25.1970,,25.1955,,1.0086,77.7128,,,,5.9146E+02,,1.0000E-12,,12.9084,12.9111,0.0757,276.774,86.465,84.904,,,,,,,,,,,,
CalCOFI,2101RL,059,,2101_059d,30-Jan-2021 15:23:05,30-Jan-2021 07:23:05,34.45189,-120.52467,080.0 051.0,080.0,051.0,29.000,29.212,,12.9083,,12.9080,,12.9082,33.4322,,33.4380,33.4302,,33.4322,33.4351,5.1891,,5.4308,5.4189,5.0876,,5.4015,5.4216,5.4203,226.049,236.8883,236.4398,221.628,251.8224,236.5583,236.4991,0.1243,,0.7703,1.6214, ,, , ,25.1974,,25.1959,,1.0064,77.7561,,,,5.6339E+02,,1.0000E-12,,12.9044,12.9041,0.0785,276.771,86.528,84.834,,,,,,,,,,,,
CalCOFI,2101RL,059,,2101_059d,30-Jan-2021 15:23:08,30-Jan-2021 07:23:08,34.45189,-120.52467,080.0 051.0,080.0,051.0,30.000,30.219,,12.9047,,12.9041,,12.9044,33.4319,,33.4377,33.4297,,33.4317,33.4347,5.1907,,5.4325,5.4206,5.0834,,5.3971,5.4174,5.4190,226.120,236.9626,236.5128,221.446,251.9014,236.3728,236.4428,0.1244,,0.7711,1.6243, ,, , ,25.1979,,25.1963,,1.0088,77.7078,,,,5.7871E+02,,1.0000E-12,,12.9006,12.9000,0.0813,276.747,86.549,84.757,,,,,,,,,,,,
CalCOFI,2101RL,059,,2101_059d,30-Jan-2021 15:23:11,30-Jan-2021 07:23:11,34.45190,-120.52466,080.0 051.0,080.0,051.0,31.000,31.226,,12.9064,,12.9066,,12.9065,33.4322,,33.4380,33.4299,,33.4319,33.4350,5.1864,,5.4280,5.4162,5.0812,,5.3947,5.4151,5.4157,225.933,236.7669,236.3206,221.348,251.6934,236.2730,236.2968,0.1239,,0.7670,1.6097, ,, , ,25.1977,,25.1960,,1.0143,77.6017,,,,5.9532E+02,,1.0000E-12,,12.9022,12.9025,0.0841,276.787,86.480,84.724,,,,,,,,,,,,
CalCOFI,2101RL,059,,2101_059d,30-Jan-2021 15:23:12,30-Jan-2021 07:23:12,34.45190,-120.52467,080.0 051.0,080.0,051.0,32.000,32.234,,12.9034,,12.9035,,12.9035,33.4318,,33.4376,33.4297,,33.4317,33.4347,5.1811,,5.4224,5.4107,5.0791,,5.3925,5.4130,5.4119,225.700,236.5230,236.0811,221.258,251.4343,236.1813,236.1312,0.1255,,0.7802,1.6565, ,, , ,25.1980,,25.1964,,1.0139,77.6098,,,,5.6983E+02,,1.0000E-12,,12.8991,12.8992,0.0869,276.786,86.386,84.684,,,,,,,,,,,,
CalCOFI,2101RL,059,,2101_059d,30-Jan-2021 15:23:13,30-Jan-2021 07:23:13,34.45190,-120.52468,080.0 051.0,080.0,051.0,33.000,33.241,,12.9048,,12.9052,,12.9050,33.4325,,33.4383,33.4304,,33.4324,33.4354,5.1769,,5.4180,5.4064,5.0818,,5.3954,5.4157,5.4111,225.518,236.3324,235.8941,221.375,251.2320,236.3005,236.0973,0.1250,,0.7761,1.6419, ,, , ,25.1983,,25.1967,,1.0116,77.6547,,,,5.7382E+02,,1.0000E-12,,12.9003,12.9007,0.0897,276.783,86.319,84.732,,,,,,,,,,,,
CalCOFI,2101RL,059,,2101_059d,30-Jan-2021 15:23:15,30-Jan-2021 07:23:15,34.45190,-120.52468,080.0 051.0,080.0,051.0,34.000,34.249,,12.9037,,12.9041,,12.9039,33.4332,,33.4390,33.4311,,33.4331,33.4361,5.1891,,5.4308,5.4189,5.0796,,5.3930,5.4135,5.4162,226.051,236.8904,236.4419,221.280,251.8247,236.2037,236.3228,0.1272,,0.7941,1.7063, ,, , ,25.1992,,25.1975,,1.0102,77.6809,,,,5.8295E+02,,1.0000E-12,,12.8992,12.8995,0.0925,276.733,86.521,84.694,,,,,,,,,,,,
CalCOFI,2101RL,059,,2101_059d,30-Jan-2021 15:23:17,30-Jan-2021 07:23:17,34.45190,-120.52468,080.0 051.0,080.0,051.0,35.000,35.256,,12.9039,,12.9043,,12.9041,33.4329,,33.4387,33.4309,,33.4329,33.4358,5.1815,,5.4229,5.4111,5.0843,,5.3980,5.4183,5.4147,225.719,236.5428,236.1007,221.486,251.4555,236.4136,236.2572,0.1253,,0.7785,1.6507, ,, , ,25.1989,,25.1973,,1.0098,77.6896,,,,5.6369E+02,,1.0000E-12,,12.8992,12.8995,0.0953,276.781,86.394,84.773,,,,,,,,,,,,
CalCOFI,2101RL,059,,2101_059d,30-Jan-2021 15:23:19,30-Jan-2021 07:23:19,34.45190,-120.52469,080.0 051.0,080.0,051.0,36.000,36.263,,12.9033,,12.9034,,12.9034,33.4334,,33.4392,33.4314,,33.4334,33.4363,5.1790,,5.4202,5.4086,5.0835,,5.3972,5.4175,5.4131,225.611,236.4298,235.9897,221.449,251.3354,236.3759,236.1828,0.1213,,0.7457,1.5335, ,, , ,25.1994,,25.1979,,1.0101,77.6838,,,,5.7750E+02,,1.0000E-12,,12.8984,12.8986,0.0981,276.762,86.352,84.758,,,,,,,,,,,,
CalCOFI,2101RL,059,,2101_059d,30-Jan-2021 15:23:22,30-Jan-2021 07:23:22,34.45190,-120.52470,080.0 051.0,080.0,051.0,37.000,37.271,,12.9040,,12.9032,,12.9036,33.4332,,33.4390,33.4314,,33.4334,33.4362,5.1820,,5.4234,5.4117,5.0823,,5.3959,5.4163,5.4140,225.740,236.5648,236.1222,221.398,251.4788,236.3239,236.2231,0.1213,,0.7457,1.5335, ,, , ,25.1992,,25.1979,,1.0108,77.6693,,,,6.0227E+02,,1.0000E-12,,12.8990,12.8982,0.1008,276.810,86.403,84.738,,,,,,,,,,,,
CalCOFI,2101RL,059,,2101_059d,30-Jan-2021 15:23:24,30-Jan-2021 07:23:24,34.45190,-120.52470,080.0 051.0,080.0,051.0,38.000,38.278,,12.8978,,12.8984,,12.8981,33.4338,,33.4396,33.4322,,33.4342,33.4369,5.1914,,5.4332,5.4213,5.0752,,5.3884,5.4090,5.4152,226.150,236.9940,236.5436,221.089,251.9347,236.0091,236.2764,0.1234,,0.7630,1.5950, ,, , ,25.2009,,25.1995,,1.0143,77.6019,,,,5.9954E+02,,1.0000E-12,,12.8926,12.8932,0.1036,276.674,86.549,84.612,,,,,,,,,,,,
CalCOFI,2101RL,059,,2101_059d,30-Jan-2021 15:23:26,30-Jan-2021 07:23:26,34.45192,-120.52472,080.0 051.0,080.0,051.0,39.000,39.286,,12.8989,,12.8993,,12.8991,33.4337,,33.4395,33.4313,,33.4333,33.4364,5.1829,,5.4243,5.4126,5.0780,,5.3913,5.4119,5.4123,225.777,236.6036,236.1603,221.209,251.5200,236.1314,236.1459,0.1257,,0.7818,1.6624, ,, , ,25.2006,,25.1987,,1.0180,77.5305,,,,5.8270E+02,,1.0000E-12,,12.8936,12.8941,0.1064,276.731,86.408,84.659,,,,,,,,,,,,
CalCOFI,2101RL,059,,2101_059d,30-Jan-2021 15:23:27,30-Jan-2021 07:23:27,34.45192,-120.52472,080.0 051.0,080.0,051.0,40.000,40.293,,12.9010,,12.9006,,12.9008,33.4332,,33.4390,33.4312,,33.4332,33.4361,5.1767,,5.4178,5.4062,5.0932,,5.4075,5.4273,5.4168,225.510,236.3241,235.8859,221.871,251.2231,236.8059,236.3459,0.1256,,0.7810,1.6595, ,, , ,25.1998,,25.1984,,1.0169,77.5521,,,,5.3903E+02,,1.0000E-12,,12.8956,12.8952,0.1092,276.831,86.309,84.915,,,,,,,,,,,,
CalCOFI,2101RL,059,,2101_059d,30-Jan-2021 15:23:28,30-Jan-2021 07:23:28,34.45191,-120.52472,080.0 051.0,080.0,051.0,41.000,41.300,,12.9002,,12.9001,,12.9002,33.4337,,33.4395,33.4314,,33.4334,33.4365,5.1840,,5.4255,5.4137,5.0914,,5.4056,5.4255,5.4196,225.827,236.6559,236.2117,221.792,251.5756,236.7254,236.4686,0.1239,,0.7670,1.6097, ,, , ,25.2004,,25.1987,,1.0170,77.5497,,,,5.1936E+02,,1.0000E-12,,12.8946,12.8945,0.1120,276.802,86.429,84.884,,,,,,,,,,,,
CalCOFI,2101RL,059,,2101_059d,30-Jan-2021 15:23:31,30-Jan-2021 07:23:31,34.45192,-120.52473,080.0 051.0,080.0,051.0,42.000,42.308,,12.8956,,12.8949,,12.8953,33.4349,,33.4407,33.4332,,33.4352,33.4380,5.1726,,5.4135,5.4020,5.0653,,5.3779,5.3990,5.4005,225.328,236.1336,235.6988,220.656,251.0207,235.5679,235.6334,0.1211,,0.7441,1.5276, ,, , ,25.2023,,25.2011,,1.0156,77.5776,,,,5.9080E+02,,1.0000E-12,,12.8899,12.8893,0.1148,276.650,86.231,84.441,,,,,,,,,,,,
CalCOFI,2101RL,059,,2101_059d,30-Jan-2021 15:23:35,30-Jan-2021 07:23:35,34.45194,-120.52474,080.0 051.0,080.0,051.0,43.000,43.315,,12.8871,,12.8851,,12.8861,33.4375,,33.4433,33.4354,,33.4374,33.4404,5.1673,,5.4080,5.3966,5.0534,,5.3652,5.3869,5.3918,225.096,235.8907,235.4604,220.135,250.7627,235.0371,235.2488,0.1240,,0.7679,1.6126, ,, , ,25.2060,,25.2047,,1.0252,77.3902,,,,6.0711E+02,,1.0000E-12,,12.8813,12.8793,0.1176,276.324,86.129,84.226,,,,,,,,,,,,
CalCOFI,2101RL,059,,2101_059d,30-Jan-2021 15:23:36,30-Jan-2021 07:23:36,34.45194,-120.52474,080.0 051.0,080.0,051.0,44.000,44.323,,12.8878,,12.8866,,12.8872,33.4372,,33.4430,33.4352,,33.4372,33.4401,5.1650,,5.4056,5.3942,5.0626,,5.3750,5.3962,5.3952,225.000,235.7902,235.3617,220.537,250.6559,235.4467,235.4042,0.1215,,0.7474,1.5394, ,, , ,25.2057,,25.2043,,1.0274,77.3478,,,,5.9597E+02,,1.0000E-12,,12.8819,12.8807,0.1204,276.384,86.093,84.382,,,,,,,,,,,,
CalCOFI,2101RL,059,,2101_059d,30-Jan-2021 15:23:37,30-Jan-2021 07:23:37,34.45194,-120.52474,080.0 051.0,080.0,051.0,45.000,45.330,,12.8874,,12.8874,,12.8874,33.4369,,33.4427,33.4349,,33.4369,33.4398,5.1635,,5.4040,5.3927,5.0468,,5.3582,5.3801,5.3864,224.931,235.7180,235.2908,219.851,250.5792,234.7477,235.0193,0.1205,,0.7392,1.5101, ,, , ,25.2055,,25.2040,,1.0288,77.3216,,,,5.7127E+02,,1.0000E-12,,12.8813,12.8814,0.1231,276.420,86.066,84.121,,,,,,,,,,,,
CalCOFI,2101RL,059,,2101_059d,30-Jan-2021 15:23:38,30-Jan-2021 07:23:38,34.45194,-120.52474,080.0 051.0,080.0,051.0,46.000,46.338,,12.8856,,12.8880,,12.8868,33.4368,,33.4426,33.4349,,33.4369,33.4398,5.1619,,5.4023,5.3910,5.0457,,5.3570,5.3790,5.3850,224.864,235.6478,235.2219,219.801,250.5047,234.6968,234.9594,0.1232,,0.7613,1.5892, ,, , ,25.2058,,25.2039,,1.0303,77.2923,,,,5.5012E+02,,1.0000E-12,,12.8794,12.8818,0.1259,276.422,86.037,84.103,,,,,,,,,,,,
CalCOFI,2101RL,059,,2101_059d,30-Jan-2021 15:23:40,30-Jan-2021 07:23:40,34.45194,-120.52474,080.0 051.0,080.0,051.0,47.000,47.345,,12.8845,,12.8848,,12.8847,33.4368,,33.4426,33.4349,,33.4369,33.4398,5.1612,,5.4016,5.3903,5.0502,,5.3618,5.3836,5.3870,224.833,235.6154,235.1901,219.995,250.4702,234.8945,235.0423,0.1201,,0.7359,1.4984, ,, , ,25.2061,,25.2045,,1.0292,77.3141,,,,5.6667E+02,,1.0000E-12,,12.8781,12.8785,0.1287,276.420,86.023,84.172,,,,,,,,,,,,
CalCOFI,2101RL,059,,2101_059d,30-Jan-2021 15:23:45,30-Jan-2021 07:23:45,34.45193,-120.52475,080.0 051.0,080.0,051.0,48.000,48.352,,12.8791,,12.8784,,12.8788,33.4368,,33.4426,33.4351,,33.4371,33.4399,5.1432,,5.3828,5.3718,5.0503,,5.3619,5.3837,5.3778,224.047,234.7926,234.3822,220.002,249.5962,234.9016,234.6419,0.1269,,0.7916,1.6975, ,, , ,25.2072,,25.2060,,1.0301,77.2957,,,,6.2569E+02,,1.0000E-12,,12.8727,12.8719,0.1315,276.345,85.713,84.163,,,,,,,,,,,,
CalCOFI,2101RL,059,,2101_059d,30-Jan-2021 15:23:47,30-Jan-2021 07:23:47,34.45192,-120.52476,080.0 051.0,080.0,051.0,49.000,49.360,,12.8691,,12.8741,,12.8716,33.4362,,33.4420,33.4351,,33.4371,33.4396,5.1366,,5.3759,5.3651,5.0292,,5.3395,5.3622,5.3637,223.760,234.4922,234.0873,219.083,249.2770,233.9652,234.0263,0.1192,,0.7285,1.4720, ,, , ,25.2087,,25.2069,,1.0410,77.0850,,,,6.0925E+02,,1.0000E-12,,12.8625,12.8675,0.1343,276.228,85.585,83.805,,,,,,,,,,,,
CalCOFI,2101RL,059,,2101_059d,30-Jan-2021 15:23:47,30-Jan-2021 07:23:47,34.45192,-120.52476,080.0 051.0,080.0,051.0,50.000,50.367,,12.8639,,12.8708,,12.8674,33.4360,,33.4418,33.4337,,33.4357,33.4388,5.1371,,5.3764,5.3656,5.0316,,5.3421,5.3647,5.3652,223.781,234.5142,234.1089,219.185,249.3004,234.0692,234.0891,0.1203,,0.7376,1.5042, ,, , ,25.2096,,25.2065,,1.0385,77.1354,,,,5.9683E+02,,1.0000E-12,,12.8572,12.8640,0.1371,276.168,85.584,83.837,50,,33.4386,5.352,233.52,1.729,0.109,,,,,
CalCOFI,2101RL,059,,2101_059d,30-Jan-2021 15:23:48,30-Jan-2021 07:23:48,34.45191,-120.52476,080.0 051.0,080.0,051.0,51.000,51.375,,12.8435,,12.8418,,12.8427,33.4341,,33.4399,33.4323,,33.4343,33.4371,5.1336,,5.3727,5.3620,5.0424,,5.3535,5.3757,5.3689,223.628,234.3540,233.9516,219.654,249.1302,234.5470,234.2493,0.1189,,0.7261,1.4632, ,, , ,25.2121,,25.2111,,1.0743,76.4473,,,,5.6350E+02,,1.0000E-12,,12.8366,12.8349,0.1398,275.953,85.489,83.966,,,,,,,,,,,,
CalCOFI,2101RL,059,,2101_059d,30-Jan-2021 15:23:49,30-Jan-2021 07:23:49,34.45190,-120.52476,080.0 051.0,080.0,051.0,52.000,52.382,,12.8248,,12.8292,,12.8270,33.4329,,33.4387,33.4312,,33.4332,33.4360,5.1367,,5.3760,5.3652,5.0481,,5.3596,5.3815,5.3734,223.765,234.4974,234.0924,219.903,249.2826,234.8007,234.4466,0.1204,,0.7384,1.5071, ,, , ,25.2149,,25.2127,,1.1050,75.8628,,,,5.4321E+02,,1.0000E-12,,12.8178,12.8222,0.1426,275.713,85.507,84.038,,,,,,,,,,,,